CAPE
0 0 0 0 0 0 0 0 0 0 0 0 0 0 0 0 0 0 0 0 0 0 0 0 0 0 0 0 0 0 0 0 0 0 0 0 0 0 0 4 0 0 0
0 0 0 0 0 0 0 0 0 0 0 0 0 0 0 0 0 0 0 0 0 0 0 0 0 0 0 0 0 0 0 0 0 0 0 0 0 0 0 0 0 0 0
0 0 0 0 0 0 0 0 0 0 0 0 0 0 0 0 0 0 0 0 0 0 0 0 0 0 0 0 0 0 0 0 0 0 0 0 0 0 0 0 0 0 0
0 0 0 0 0 0 0 0 0 0 0 0 0 0 0 0 0 0 0 0 0 0 0 0 0 0 0 0 0 0 0 0 0 0 0 0 0 0 0 0 0 0 0
0 0 0 0 0 0 0 0 0 0 0 0 0 0 0 0 0 0 0 0 0 0 0 0 0 0 0 0 0 0 0 0 0 0 0 0 0 0 0 0 0 0 0
0 0 0 0 0 0 0 0 0 0 0 0 0 0 0 0 0 0 0 0 0 0 0 0 0 0 0 0 0 0 0 0 0 0 0 0 0 0 0 0 0 0 0
0 0 0 0 0 0 0 0 0 0 0 0 0 0 0 0 0 0 0 0 0 0 0 0 0 0 0 0 0 0 0 0 0 0 0 0 0 0 0 0 0 0 0
0 0 0 0 0 0 0 0 0 0 0 0 0 0 0 0 0 0 0 0 0 0 0 0 0 0 0 0 0 0 0 0 0 0 0 0 0 0 0 0 0 0 0
0 0 0 0 0 0 0 0 0 0 0 0 0 0 0 0 0 0 0 0 0 0 0 0 0 0 0 0 0 0 0 0 0 0 0 0 0 0 0 0 0 0 0
0 0 0 0 0 0 0 0 0 0 0 0 0 0 0 0 0 0 0 0 0 0 0 0 0 0 0 0 0 0 0 0 0 0 0 0 0 0 0 0 0 0 0
0 0 0 0 0 0 0 0 0 0 0 0 0 0 0 0 0 0 0 0 0 0 0 0 0 0 0 0 0 0 0 0 0 0 0 0 0 0 0 0 0 0 0
0 0 0 0 0 0 0 0 0 0 0 0 0 0 0 0 0 0 0 0 0 0 0 0 0 0 0 0 0 0 0 0 0 0 0 0 0 0 0 0 0 0 0
0 0 0 0 0 0 0 0 0 0 0 0 0 0 0 0 0 0 0 0 0 0 0 0 0 0 0 0 0 0 0 0 0 0 0 0 0 0 0 0 0 0 0
0 0 0 0 0 0 0 0 0 0 0 0 0 0 0 0 0 0 0 0 0 0 0 0 0 0 0 0 0 0 0 0 0 0 0 0 0 0 0 0 0 0 0
0 0 0 0 0 0 0 0 0 0 0 0 0 0 0 0 0 0 0 0 0 0 0 0 0 0 0 0 0 0 0 0 0 0 0 0 0 0 0 0 0 0 0
0 0 0 0 0 0 0 0 0 0 0 0 0 0 0 0 0 0 0 0 0 0 0 0 0 0 0 0 0 0 0 0 0 0 0 0 0 0 0 0 0 0 0
0 0 0 0 0 0 0 0 0 0 0 0 0 0 0 0 0 0 0 0 0 0 0 0 0 0 0 0 0 0 0 0 0 0 0 0 0 0 0 0 1 0 0
0 0 0 0 0 0 0 0 0 0 0 0 0 0 0 0 0 0 0 0 0 0 0 0 0 0 0 0 0 0 0 0 0 0 0 0 0 0 0 0 0 0 0
0 0 0 0 0 0 0 0 0 0 0 0 0 0 0 0 0 0 0 0 0 0 0 0 0 0 0 0 0 0 0 0 0 0 0 0 0 0 0 0 0 0 0
0 0 0 0 0 0 0 0 0 0 0 0 0 0 0 0 0 0 0 0 0 0 0 0 0 0 0 0 0 0 0 0 0 0 0 0 0 0 0 2 2 2 0
0 0 0 0 0 0 0 0 0 0 0 0 0 0 0 0 0 0 0 0 0 0 0 0 0 0 0 0 0 0 0 0 0 0 0 1 2 6 12 16 14 8 10
0 0 0 0 0 0 0 0 0 0 0 0 0 0 0 0 0 0 0 0 0 0 0 0 0 0 0 5 1 3 5 8 9 4 3 6 2 2 6 12 8 12 16
0 0 0 0 0 0 0 0 0 0 0 0 0 0 0 0 0 0 0 0 0 0 0 0 0 0 0 3 1 5 6 5 7 7 9 10 12 17 16 8 5 9 5
0 0 0 0 0 0 0 0 0 0 0 0 0 0 0 0 0 0 0 0 0 0 0 1 0 0 0 0 1 0 0 4 3 4 1 6 11 12 9 5 3 0 3
0 0 0 0 0 0 0 0 0 0 0 0 0 0 0 0 0 0 0 0 0 2 5 3 3 2 1 0 11 22 13 11 5 8 2 0 0 1 1 2 5 9 7
0 0 0 0 0 0 0 0 0 0 0 0 0 0 0 0 0 0 0 0 0 0 5 3 8 5 5 10 11 11 11 8 6 2 3 3 2 2 2 0 0 0 0
CIN
0 0 0 0 0 0 0 0 0 0 0 0 0 0 0 0 0 0 0 0 0 0 0 0 0 0 0 0 0 0 0 0 0 0 0 0 0 0 0 -1 0 0 0
0 0 0 0 0 0 0 0 0 0 0 0 0 0 0 0 0 0 0 0 0 0 0 0 0 0 0 0 0 0 0 0 0 0 0 0 0 0 0 0 0 0 0
0 0 0 0 0 0 0 0 0 0 0 0 0 0 0 0 0 0 0 0 0 0 0 0 0 0 0 0 0 0 0 0 0 0 0 0 0 0 0 0 0 0 0
0 0 0 0 0 0 0 0 0 0 0 0 0 0 0 0 0 0 0 0 0 0 0 0 0 0 0 0 0 0 0 0 0 0 0 0 0 0 0 0 0 0 0
0 0 0 0 0 0 0 0 0 0 0 0 0 0 0 0 0 0 0 0 0 0 0 0 0 0 0 0 0 0 0 0 0 0 0 0 0 0 0 0 0 0 0
0 0 0 0 0 0 0 0 0 0 0 0 0 0 0 0 0 0 0 0 0 0 0 0 0 0 0 0 0 0 0 0 0 0 0 0 0 0 0 0 0 0 0
0 0 0 0 0 0 0 0 0 0 0 0 0 0 0 0 0 0 0 0 0 0 0 0 0 0 0 0 0 0 0 0 0 0 0 0 0 0 0 0 0 0 0
0 0 0 0 0 0 0 0 0 0 0 0 0 0 0 0 0 0 0 0 0 0 0 0 0 0 0 0 0 0 0 0 0 0 0 0 0 0 0 0 0 0 0
0 0 0 0 0 0 0 0 0 0 0 0 0 0 0 0 0 0 0 0 0 0 0 0 0 0 0 0 0 0 0 0 0 0 0 0 0 0 0 0 0 0 0
0 0 0 0 0 0 0 0 0 0 0 0 0 0 0 0 0 0 0 0 0 0 0 0 0 0 0 0 0 0 0 0 0 0 0 0 0 0 0 0 0 0 0
0 0 0 0 0 0 0 0 0 0 0 0 0 0 0 0 0 0 0 0 0 0 0 0 0 0 0 0 0 0 0 0 0 0 0 0 0 0 0 0 0 0 0
0 0 0 0 0 0 0 0 0 0 0 0 0 0 0 0 0 0 0 0 0 0 0 0 0 0 0 0 0 0 0 0 0 0 0 0 0 0 0 0 0 0 0
0 0 0 0 0 0 0 0 0 0 0 0 0 0 0 0 0 0 0 0 0 0 0 0 0 0 0 0 0 0 0 0 0 0 0 0 0 0 0 0 0 0 0
0 0 0 0 0 0 0 0 0 0 0 0 0 0 0 0 0 0 0 0 0 0 0 0 0 0 0 0 0 0 0 0 0 0 0 0 0 0 0 0 0 0 0
0 0 0 0 0 0 0 0 0 0 0 0 0 0 0 0 0 0 0 0 0 0 0 0 0 0 0 0 0 0 0 0 0 0 0 0 0 0 0 0 0 0 0
0 0 0 0 0 0 0 0 0 0 0 0 0 0 0 0 0 0 0 0 0 0 0 0 0 0 0 0 0 0 0 0 0 0 0 0 0 0 0 0 0 0 0
0 0 0 0 0 0 0 0 0 0 0 0 0 0 0 0 0 0 0 0 0 0 0 0 0 0 0 0 0 0 0 0 0 0 0 0 0 0 0 0 0 0 0
0 0 0 0 0 0 0 0 0 0 0 0 0 0 0 0 0 0 0 0 0 0 0 0 0 0 0 0 0 0 0 0 0 0 0 0 0 0 0 0 0 0 0
0 0 0 0 0 0 0 0 0 0 0 0 0 0 0 0 0 0 0 0 0 0 0 0 0 0 0 0 0 0 0 0 0 0 0 0 0 0 0 0 0 0 0
0 0 0 0 0 0 0 0 0 0 0 0 0 0 0 0 0 0 0 0 0 0 0 0 0 0 0 0 0 0 0 0 0 0 0 0 0 0 0 -2 -2 -1 0
0 0 0 0 0 0 0 0 0 0 0 0 0 0 0 0 0 0 0 0 0 0 0 0 0 0 0 0 0 0 0 0 0 0 0 0 -1 -1 -1 -1 -1 -1 -1
0 0 0 0 0 0 0 0 0 0 0 0 0 0 0 0 0 0 0 0 0 0 0 0 0 0 0 0 -4 -3 -2 -2 -1 -1 0 0 0 -3 -2 -1 -1 -1 -1
0 0 0 0 0 0 0 0 0 0 0 0 0 0 0 0 0 0 0 0 0 0 0 0 0 0 0 0 -1 -1 -2 -2 0 0 0 0 0 -1 0 -2 -1 0 -3
0 0 0 0 0 0 0 0 0 0 0 0 0 0 0 0 0 0 0 0 0 0 0 -1 0 0 0 0 0 0 0 -5 -4 -1 -4 -1 0 -1 -2 -2 -4 -7 -3
0 0 0 0 0 0 0 0 0 0 0 0 0 0 0 0 0 0 0 0 0 -1 -1 -1 0 0 0 0 0 0 0 0 -2 -2 -1 -1 0 -1 -1 -4 -1 -2 -3
0 0 0 0 0 0 0 0 0 0 0 0 0 0 0 0 0 0 0 0 0 0 -1 -1 -1 -1 0 0 0 -1 -1 -1 -1 -2 -1 -1 -2 0 -1 0 0 0 0
Wind_Speed
10 10 11 10 9 8 7 8 10 12 14 15 16 15 15 15 16 17 18 18 19 21 21 22 24 25 26 27 28 28 27 28 29 23 21 18 19 19 20 19 20 22 23
11 13 13 11 10 9 8 9 10 11 14 15 15 16 15 15 15 15 17 18 19 20 21 23 24 25 25 27 28 29 27 26 27 26 20 23 18 18 21 21 21 22 24
15 14 13 12 11 11 10 10 11 12 14 15 15 15 15 15 15 15 16 18 19 20 21 22 23 24 25 26 27 27 27 26 25 26 24 25 25 29 20 21 21 24 26
15 14 13 13 12 12 11 11 12 13 14 14 14 15 17 18 17 16 17 17 18 19 20 22 23 24 25 26 26 25 25 26 26 24 25 23 24 27 28 25 23 24 26
16 14 14 13 12 12 12 12 12 13 14 14 14 16 17 17 16 16 18 17 18 19 21 22 23 24 24 24 25 25 26 25 26 26 26 25 25 23 26 30 30 29 30
16 15 14 13 13 13 13 13 15 15 13 13 14 15 16 16 17 18 18 18 19 19 21 22 23 24 25 25 26 26 26 26 26 26 26 27 27 29 29 32 33 34 31
15 14 14 13 13 13 14 15 15 15 14 14 14 15 16 17 19 19 19 20 21 22 23 23 24 25 25 25 25 26 26 26 27 27 27 27 28 29 30 31 34 34 34
13 12 12 13 13 14 15 15 15 15 14 14 15 16 17 19 19 20 21 22 23 24 23 23 24 25 26 26 26 27 27 27 28 29 29 30 30 30 30 31 35 38 34
12 12 12 13 14 14 14 14 14 14 14 15 16 17 18 19 21 21 22 23 23 24 25 25 26 26 26 27 28 28 29 29 30 30 31 31 32 32 31 32 32 34 40
13 13 13 14 14 14 14 14 14 15 16 17 18 19 19 20 21 22 23 24 25 25 25 26 26 27 27 28 28 30 30 31 31 32 32 33 34 34 34 33 33 33 37
13 14 15 15 15 15 15 15 16 17 18 18 19 19 20 21 22 23 24 25 26 26 27 27 28 29 30 30 31 31 32 33 34 34 35 36 36 36 36 35 34 35 35
14 14 14 15 16 16 16 17 18 18 19 19 19 20 21 22 24 25 26 26 27 28 28 29 30 30 31 31 33 35 35 37 38 39 39 39 38 38 37 37 38 37 37
14 13 14 15 16 17 17 18 18 19 19 19 20 21 23 24 25 26 27 28 29 30 30 31 32 34 35 37 38 39 40 39 39 39 39 40 39 40 39 39 40 39 39
14 14 14 15 16 17 17 18 18 19 19 20 21 22 24 25 26 27 29 30 31 32 32 33 34 35 36 37 38 38 39 40 40 41 41 41 41 41 41 42 42 42 43
14 15 16 15 16 16 17 18 19 20 20 22 23 25 26 27 29 30 31 31 32 32 33 35 36 36 37 38 39 41 43 44 44 43 43 42 41 41 40 42 42 42 43
15 15 15 14 15 16 17 18 20 21 22 24 25 27 29 30 31 32 33 33 34 35 36 37 38 40 40 40 41 42 43 44 46 47 45 43 43 42 41 41 41 42 44
13 13 13 14 15 17 18 20 21 22 24 26 28 29 31 32 33 34 35 36 37 38 39 39 41 43 43 43 43 43 44 44 44 45 45 45 43 42 43 44 44 44 44
11 12 14 15 16 17 19 21 23 25 27 28 29 31 32 34 36 37 38 39 40 42 43 44 44 46 45 44 45 44 43 42 42 42 43 43 43 42 42 43 44 44 43
12 13 14 15 17 19 21 23 25 26 27 29 31 33 35 37 39 42 43 42 45 46 46 46 48 48 48 46 45 44 42 42 42 41 40 38 38 38 39 40 41 41 39
13 15 15 17 19 21 23 25 27 29 31 32 34 36 37 39 42 43 45 45 45 47 48 49 47 47 48 46 44 42 41 42 41 40 37 36 36 36 37 36 36 39 38
16 15 16 20 21 21 23 27 29 31 33 34 35 37 38 41 42 43 44 46 47 47 48 48 47 47 45 45 44 42 40 38 39 38 37 35 35 36 35 33 31 32 34
17 17 19 20 20 22 25 28 31 32 33 35 38 40 40 41 42 43 44 44 45 46 46 46 47 45 44 42 42 39 37 36 36 37 37 37 39 38 37 36 35 36 36
18 19 20 22 23 25 27 31 32 34 36 38 40 41 41 42 40 41 42 43 42 43 44 44 44 43 41 39 37 37 36 34 33 34 37 41 42 40 38 36 35 36 33
19 20 21 24 26 27 30 32 34 35 38 41 41 41 42 41 39 39 38 39 40 41 41 42 42 40 38 34 32 29 29 31 34 37 37 37 38 39 37 35 33 32 32
19 21 23 26 28 30 32 33 36 38 40 40 40 40 38 39 39 37 37 37 35 36 38 37 36 36 34 31 32 34 33 33 33 38 36 36 35 35 34 32 31 30 30
21 24 26 28 30 32 34 36 36 37 39 40 39 38 38 37 36 37 38 33 32 32 31 30 28 27 25 25 27 29 31 35 39 38 36 35 35 34 33 34 34 33 33
Wind_Direction
286 290 295 303 311 319 329 339 343 344 344 343 343 346 347 355 360 3 4 5 5 4 3 1 358 354 354 353 353 353 355 356 353 0 1 3 3 2 0 1 0 359 358
282 288 292 296 301 308 320 331 336 341 341 341 343 344 348 352 356 360 1 0 360 360 359 357 351 351 350 350 350 351 353 357 359 359 360 354 358 0 353 354 355 356 355
280 285 289 292 297 302 312 322 332 337 339 340 342 344 348 351 349 353 354 354 356 356 356 354 350 350 350 347 348 350 352 352 356 357 356 349 345 344 354 352 350 347 346
282 284 288 292 295 302 315 322 330 334 337 338 337 334 335 336 344 348 349 350 352 352 352 349 347 346 346 344 347 350 350 349 348 350 351 350 346 340 338 345 347 346 342
281 284 287 292 299 306 310 320 328 331 335 336 336 333 334 339 344 344 342 345 347 346 345 343 344 343 344 344 343 343 343 343 342 343 342 341 339 339 334 330 331 334 335
285 287 291 294 299 306 310 316 320 326 334 336 337 335 336 337 337 337 338 339 339 339 339 340 339 338 337 336 336 337 338 339 338 338 337 335 334 330 329 326 325 325 328
288 289 291 293 298 303 309 315 319 323 330 333 336 336 334 333 332 334 334 333 333 332 332 333 333 333 333 333 333 332 332 332 331 331 330 329 327 326 325 323 321 321 321
299 296 297 299 302 306 311 316 320 324 329 331 331 331 331 330 332 331 331 329 328 329 331 330 329 329 329 328 328 328 327 327 326 325 324 323 322 321 320 319 318 315 316
303 304 306 308 309 311 315 319 323 326 328 328 327 327 328 328 328 329 328 327 328 327 327 327 326 326 326 325 324 323 322 321 320 319 319 318 318 317 316 316 315 312 310
306 309 311 313 316 319 323 325 326 326 325 324 324 326 327 327 328 328 327 327 327 327 326 326 326 325 324 323 322 320 319 317 317 316 315 314 314 313 312 311 310 308 305
304 309 313 318 321 324 326 326 325 323 323 325 327 327 328 329 328 327 327 327 327 327 326 325 324 323 322 321 319 318 317 315 314 313 312 310 310 310 310 309 307 305 304
306 314 321 327 329 330 330 327 326 327 328 329 329 330 330 330 330 329 329 329 327 326 325 324 322 321 320 319 318 316 314 312 310 310 309 308 308 307 306 306 304 302 302
311 321 327 330 333 332 331 333 334 333 335 335 334 334 334 333 332 332 331 330 328 326 325 323 321 320 319 318 316 314 313 312 310 309 308 307 306 305 305 304 302 301 300
312 318 324 327 330 335 338 340 342 343 343 342 341 339 337 336 335 333 331 329 328 326 325 323 321 320 318 317 316 315 314 312 311 309 307 305 304 303 303 301 299 299 297
309 312 315 324 330 335 339 342 343 343 342 340 338 337 336 335 333 331 329 328 327 325 323 321 320 319 318 317 316 314 312 311 309 308 306 304 303 300 300 299 298 297 296
306 313 318 326 331 335 337 338 338 338 339 337 335 335 333 331 330 329 328 327 324 322 321 319 318 317 316 315 314 313 311 310 308 307 306 304 302 300 298 296 296 294 294
308 314 320 326 331 332 334 334 336 336 334 333 332 331 331 330 329 328 326 324 322 320 318 317 316 314 314 314 313 312 310 309 308 307 306 305 303 302 300 298 296 294 292
313 317 321 325 329 333 334 334 333 332 331 331 332 332 331 329 328 327 325 323 321 319 317 315 314 313 313 312 312 311 309 308 307 307 306 305 304 303 302 300 299 297 296
317 321 326 328 330 330 332 332 331 332 332 332 331 331 330 328 327 325 324 323 321 319 317 315 314 313 312 312 311 310 309 308 307 307 307 307 306 304 304 303 302 300 299
326 324 329 330 330 332 333 332 330 330 330 331 331 330 330 328 326 325 324 323 322 320 319 317 315 314 313 313 311 310 309 307 308 308 309 308 307 307 306 305 304 302 302
323 331 331 327 331 334 334 330 330 330 331 331 330 330 329 327 327 326 326 325 324 323 322 321 319 318 317 316 314 312 310 308 308 309 310 311 310 309 309 308 307 306 306
327 328 328 330 334 334 333 330 329 331 331 331 329 329 329 329 329 328 328 328 328 327 326 325 324 324 322 320 319 317 314 311 309 308 309 309 308 308 308 308 307 306 304
327 330 330 330 332 332 332 329 330 331 331 330 330 330 331 331 332 332 332 332 332 331 330 329 329 328 328 327 325 323 320 317 314 312 309 307 307 308 310 310 309 308 307
327 328 328 328 329 331 331 330 331 331 331 330 331 332 332 333 335 335 336 335 335 335 335 334 333 333 333 332 331 329 328 324 320 315 313 312 311 310 311 312 311 310 308
329 329 328 328 328 330 330 331 331 331 331 331 332 333 334 335 335 337 337 337 338 338 338 338 338 337 337 339 336 332 330 329 325 318 318 316 316 315 315 315 315 314 311
329 328 329 328 328 329 329 330 332 333 333 332 334 335 335 336 337 337 337 340 339 341 342 343 344 344 343 344 344 342 337 330 323 324 323 320 319 317 317 316 315 314 312